Regional Weather Roundup
Issued by NWS Spokane, WA

Home | Current Version | Previous Version | Text Only | Print | Product List | Glossary On
Versions: 1 2 3 4 5 6 7 8 9 10 11 12 13 14 15 16 17 18 19 20 21 22 23 24 25 26 27 28 29 30 31 32 33 34 35 36 37 38 39 40 41 42 43 44 45 46 47 48 49 50
000
NZUS01 KOTX 231825
RWROTX

Eastern Washington/Northern Idaho Roundup
National Weather Service, Spokane WA
1100 AM PDT THU MAR 23 2017

Note: "fair" indicated few or no clouds below 12,000 feet with no
significant weather and/or obstructions to visibility.

...Northeast Washington and Northern Idaho Panhandle...

CITY           SKY/WX    TMP DP  RH WIND       PRES   REMARKS
Spokane Intl   PTSUNNY   41  30  65 SW13      30.06R
Spokane Downto MOSUNNY   44  33  65 S12       30.08S
Coeur d Alene  CLOUDY    42  32  67 S14       30.07S
Deer Park      MOSUNNY   41  31  67 S5        30.07R
Sandpoint      CLOUDY    43  32  65 S7        30.07R
Bonners Ferry  MOCLDY    46  32  57 SW8       30.03R

...Southeast Washington and southern Idaho Panhandle...

CITY           SKY/WX    TMP DP  RH WIND       PRES   REMARKS
Walla Walla    MOSUNNY   50  32  50 SW13      30.12R
Pullman/Moscow MOSUNNY   43  30  60 SW14      30.10R
Lewiston       SUNNY     46  38  73 NW5       30.10S
Lowell           N/A     51  36  56 NE6       30.10F
Grangeville    MOCLDY    39  32  75 CALM      30.07R

...Columbia Basin...

CITY           SKY/WX    TMP DP  RH WIND       PRES   REMARKS
Ephrata        SUNNY     49  27  42 S7        30.06R
Moses Lake     SUNNY     49  32  52 S8        30.08R
Pasco          SUNNY     51  31  46 S7        30.12F
Richland       CLEAR     52  35  52 SW7       30.12S
Hermiston      SUNNY     51  35  54 W8        30.11F
Pendleton      MOSUNNY   46  32  58 S5        30.11S

...East Slopes Cascades...

CITY           SKY/WX    TMP DP  RH WIND       PRES   REMARKS
The Dalles     MOSUNNY   49  35  58 CALM      30.12F
Yakima         SUNNY     48  32  53 CALM      30.09F
Ellensburg     MOSUNNY   49  31  49 VRB3      30.06S
Wenatchee      MOSUNNY   45  30  55 VRB3      30.06R
Omak           CLOUDY    44  33  65 S7        30.05S
Chelan           N/A     45  27  49 E5          N/A
Sunnyside      CLEAR     46  31  55 SW3       30.10F

...Southern British Columbia...

CITY           SKY/WX    TMP DP  RH WIND       PRES   REMARKS
Penticton      CLOUDY    43  37  81 SE7       30.03S
Castlegar      PTSUNNY   43  37  81 SE3       30.02R
Cranbrook      MOSUNNY   45  28  53 S21G28    29.91S
Osoyoos          N/A     45  36  70 S5          N/A
Creston          N/A     45  36  70 S10G17      N/A

...Western Montana...

CITY           SKY/WX    TMP DP  RH WIND       PRES   REMARKS
Kalispell      CLOUDY    44  31  60 W8        29.99R
Missoula       CLOUDY    46  26  45 W7        30.01F

...Neighboring Cities...

CITY           SKY/WX    TMP DP  RH WIND       PRES   REMARKS
Seattle        PTSUNNY   49  35  58 S12       30.07F
Portland       CLOUDY    49  38  65 E13       30.10F
Boise          SUNNY     49  32  52 NW15      30.03R
Great Falls    SUNNY     52  21  29 W17G28    29.86R
Calgary        MOSUNNY   50  14  23 W22G29    29.74R



USA.gov is the U.S. government's official web portal to all federal, state and local government web resources and services.